Flag for India Weather past 2 weeks in Gurdaspur, Punjab, India

Now
91 °F

Clear.


Feels Like: 96 °F
Forecast: 71 / 93 °F
Wind: No wind

Location: Amritsar Airport

Current Time: Sep 21, 2014 at 2:13:02 PM

Latest Report: Sep 21, 2014 at 1:30 PM


Visibility: 4 mi

Pressure: 29.68 "Hg

Humidity: 46%

Dew point: 68 °F

Location of GurdaspurLocation

Historic Weather in Gurdaspur — Graph

°F

Gurdaspur temperature yesterday

Maximum temperature yesterday: 93 °F (at 12:30 PM)
Minimum temperature yesterday: 75 °F (at 11:00 PM)
Average temperature yesterday: 85 °F

Past Weeks' High & Low Weather Summary

 TemperatureHumidityPressure
High95 °F (Sep 18, 3:00 PM)100% (Sep 6, 11:00 PM)29.80 "Hg (Sep 6, 11:00 PM)
Low72 °F (Sep 17, 6:00 AM)49% (Sep 15, 3:30 PM)29.59 "Hg (Sep 9, 4:30 PM)
Average82 °F84%29.68 "Hg
* Reported Sep 6 12:30 PM — Sep 21 1:00 PM, Gurdaspur, Weather by CustomWeather, © 2014

Note: Actual official high and low records may vary slightly from our data, if they occured in-between our weather recording intervals... More about our weather records

Advertising

Gurdaspur weather history for previous 24 hours

 ConditionsComfort  
Time TempWeatherWind HumidityBarometerVisibility
1:00 PM
Sep 21
88 °FHaze.No wind52%29.68 "Hg4 mi
12:30 PM90 °FHaze.No wind49%29.68 "Hg3 mi
12:00 PM88 °FHaze.No wind52%29.71 "Hg3 mi
11:30 AM86 °FScattered clouds.1 mph59%29.71 "Hg3 mi
11:00 AM86 °FScattered clouds.5 mph59%29.71 "Hg3 mi
10:30 AM84 °FScattered clouds.2 mph62%29.71 "Hg3 mi
10:00 AM84 °FScattered clouds.3 mph66%29.71 "Hg3 mi
9:30 AM81 °FScattered clouds.5 mph74%29.71 "Hg3 mi
9:00 AM77 °FScattered clouds.7 mph79%29.71 "Hg3 mi
8:30 AM77 °FFog.7 mph79%29.74 "Hg2 mi
8:00 AM75 °FFog.10 mph83%29.77 "Hg2 mi
7:30 AM73 °FFog.9 mph94%29.77 "Hg2 mi
6:30 AM73 °FFog.No wind94%29.71 "Hg1 mi
6:00 AM73 °FFog.No wind94%29.68 "Hg1 mi
5:30 AM73 °FFog.No wind94%29.68 "Hg1 mi
5:00 AM73 °FFog.No wind94%29.68 "Hg1 mi
4:30 AM73 °FFog.No wind94%29.65 "Hg1 mi
3:30 AM73 °FFog.No wind94%29.65 "Hg1 mi
3:00 AM73 °FFog.No wind94%29.65 "Hg1 mi
1:30 AM73 °FFog.No wind100%29.65 "Hg1 mi
1:00 AM73 °FFog.2 mph100%29.68 "Hg1 mi
12:30 AM73 °FFog.No wind100%29.68 "Hg1 mi
11:30 PM
Sep 20
75 °FFog.6 mph94%29.65 "Hg2 mi
11:00 PM75 °FFog.No wind94%29.65 "Hg2 mi
6:30 PM82 °FPartly sunny.17 mph66%29.65 "Hg2 mi
6:00 PM90 °FScattered clouds.1 mph71%29.62 "Hg2 mi
5:30 PM91 °FScattered clouds.No wind67%29.59 "Hg2 mi
5:00 PM91 °FScattered clouds.3 mph67%29.59 "Hg2 mi
4:30 PM91 °FScattered clouds.6 mph67%29.59 "Hg2 mi
3:30 PM91 °FScattered clouds.6 mph67%29.59 "Hg2 mi
3:00 PM91 °FScattered clouds.2 mph67%29.62 "Hg2 mi
2:30 PM91 °FScattered clouds.3 mph67%29.62 "Hg2 mi
2:00 PM91 °FScattered clouds.3 mph63%29.65 "Hg2 mi
Weather by CustomWeather, © 2014

See weather overviewHow to use our weather pages